,,PA_Meas_PMT16A,,PR_Meas_QMR101_102,,RH_Meas_QMH101,,SR_Meas_QMS101,,TA_Meas_QMH101,,GenWind,,GenWind,
time,status,PA,status,PR,status,RH,status,SR,status,TA,status,DirAvg,status,SpdAvg,
2013-08-24, 00:00:04,VALID,917.999,VALID,0,VALID,95.6662,VALID,0,VALID,19.8213,VALID,144,VALID,0,
2013-08-24, 00:01:04,VALID,917.985,VALID,0,VALID,95.7196,VALID,0,VALID,19.8003,VALID,144,VALID,0,
2013-08-24, 00:02:04,VALID,918.001,VALID,0,VALID,95.773,VALID,0,VALID,19.7613,VALID,134,VALID,0,
2013-08-24, 00:03:04,VALID,917.996,VALID,0,VALID,95.8111,VALID,0,VALID,19.7223,VALID,133,VALID,0,
2013-08-24, 00:04:04,VALID,917.977,VALID,0,VALID,95.8187,VALID,0,VALID,19.7028,VALID,131,VALID,0,
2013-08-24, 00:05:04,VALID,917.992,VALID,0,VALID,95.8721,VALID,0,VALID,19.7043,VALID,134,VALID,0,
2013-08-24, 00:06:04,VALID,917.987,VALID,0,VALID,95.9026,VALID,0,VALID,19.6638,VALID,137,VALID,0,
2013-08-24, 00:07:04,VALID,917.986,VALID,0,VALID,95.9254,VALID,0,VALID,19.6653,VALID,128,VALID,0,
2013-08-24, 00:08:04,VALID,917.997,VALID,0,VALID,95.9483,VALID,0,VALID,19.6653,VALID,141,VALID,0,
2013-08-24, 00:09:04,VALID,917.96,VALID,0,VALID,95.9864,VALID,0,VALID,19.6443,VALID,140,VALID,0,
2013-08-24, 00:10:04,VALID,917.996,VALID,0,VALID,96.0245,VALID,0,VALID,19.6458,VALID,133,VALID,0,
2013-08-24, 00:11:04,VALID,917.964,VALID,0,VALID,96.0245,VALID,0,VALID,19.6263,VALID,133,VALID,0,
2013-08-24, 00:12:04,VALID,917.946,VALID,0,VALID,96.0627,VALID,0,VALID,19.6263,VALID,127,VALID,0,
2013-08-24, 00:13:04,VALID,917.946,VALID,0,VALID,96.0779,VALID,0,VALID,19.5858,VALID,126,VALID,0,
2013-08-24, 00:14:04,VALID,917.937,VALID,0,VALID,96.1084,VALID,0,VALID,19.6068,VALID,127,VALID,0,
2013-08-24, 00:15:04,VALID,917.883,VALID,0,VALID,96.1389,VALID,0,VALID,19.5663,VALID,127,VALID,0,
2013-08-24, 00:16:04,VALID,917.911,VALID,0,VALID,96.177,VALID,0,VALID,19.5873,VALID,124,VALID,0,
2013-08-24, 00:17:04,VALID,917.87,VALID,0,VALID,96.1923,VALID,0,VALID,19.5468,VALID,124,VALID,0,
2013-08-24, 00:18:04,VALID,917.883,VALID,0,VALID,96.2456,VALID,0,VALID,19.5858,VALID,124,VALID,0,
2013-08-24, 00:19:04,VALID,917.846,VALID,0,VALID,96.2761,VALID,0,VALID,19.6263,VALID,124,VALID,0,
2013-08-24, 00:20:04,VALID,917.801,VALID,0,VALID,96.299,VALID,0,VALID,19.6263,VALID,124,VALID,0,
2013-08-24, 00:21:04,VALID,917.803,VALID,0,VALID,96.3219,VALID,0,VALID,19.5873,VALID,124,VALID,0,
2013-08-24, 00:22:04,VALID,917.754,VALID,0,VALID,96.3447,VALID,0,VALID,19.5858,VALID,124,VALID,0,
2013-08-24, 00:23:04,VALID,917.76,VALID,0,VALID,96.3676,VALID,0,VALID,19.6068,VALID,124,VALID,0,
2013-08-24, 00:24:04,VALID,917.775,VALID,0,VALID,96.3905,VALID,0,VALID,19.5873,VALID,124,VALID,0,
2013-08-24, 00:25:04,VALID,917.763,VALID,0,VALID,96.3905,VALID,0,VALID,19.6068,VALID,125,VALID,0,
2013-08-24, 00:26:04,VALID,917.754,VALID,0,VALID,96.421,VALID,0,VALID,19.6263,VALID,124,VALID,0,
2013-08-24, 00:27:04,VALID,917.764,VALID,0,VALID,96.4515,VALID,0,VALID,19.6458,VALID,124,VALID,0,
2013-08-24, 00:28:04,VALID,917.751,VALID,0,VALID,96.4438,VALID,0,VALID,19.6443,VALID,124,VALID,0,
2013-08-24, 00:29:04,VALID,917.759,VALID,0,VALID,96.4438,VALID,0,VALID,19.6458,VALID,124,VALID,0,
2013-08-24, 00:30:04,VALID,917.768,VALID,0,VALID,96.4515,VALID,0,VALID,19.6263,VALID,124,VALID,0,
2013-08-24, 00:31:04,VALID,917.779,VALID,0,VALID,96.4438,VALID,0,VALID,19.6068,VALID,124,VALID,0,
2013-08-24, 00:32:04,VALID,917.789,VALID,0,VALID,96.4133,VALID,0,VALID,19.5663,VALID,124,VALID,0,
2013-08-24, 00:33:04,VALID,917.739,VALID,0,VALID,96.4057,VALID,0,VALID,19.5663,VALID,125,VALID,0,
2013-08-24, 00:34:04,VALID,917.729,VALID,0,VALID,96.4133,VALID,0,VALID,19.5483,VALID,124,VALID,0,
2013-08-24, 00:35:04,VALID,917.725,VALID,0,VALID,96.4057,VALID,0,VALID,19.5873,VALID,141,VALID,0,
2013-08-24, 00:36:04,VALID,917.734,VALID,0,VALID,96.3829,VALID,0,VALID,19.5873,VALID,141,VALID,0,
2013-08-24, 00:37:04,VALID,917.679,VALID,0,VALID,96.3829,VALID,0,VALID,19.5663,VALID,141,VALID,0,
2013-08-24, 00:38:04,VALID,917.708,VALID,0,VALID,96.36,VALID,0,VALID,19.5468,VALID,141,VALID,0,
2013-08-24, 00:39:04,VALID,917.731,VALID,0,VALID,96.36,VALID,0,VALID,19.5483,VALID,141,VALID,0,
2013-08-24, 00:40:04,VALID,917.718,VALID,0,VALID,96.3447,VALID,0,VALID,19.5483,VALID,141,VALID,0,
2013-08-24, 00:41:04,VALID,917.706,VALID,0,VALID,96.3219,VALID,0,VALID,19.5483,VALID,141,VALID,0,
2013-08-24, 00:42:04,VALID,917.714,VALID,0,VALID,96.3295,VALID,0,VALID,19.5483,VALID,141,VALID,0,
2013-08-24, 00:43:04,VALID,917.698,VALID,0,VALID,96.2914,VALID,0,VALID,19.4898,VALID,141,VALID,0,
2013-08-24, 00:44:04,VALID,917.705,VALID,0,VALID,96.2761,VALID,0,VALID,19.4703,VALID,141,VALID,0,
2013-08-24, 00:45:04,VALID,917.696,VALID,0,VALID,96.2761,VALID,0,VALID,19.4898,VALID,141,VALID,0,
2013-08-24, 00:46:04,VALID,917.662,VALID,0,VALID,96.2685,VALID,0,VALID,19.4703,VALID,140,VALID,0,
2013-08-24, 00:47:04,VALID,917.656,VALID,0,VALID,96.2609,VALID,0,VALID,19.4508,VALID,140,VALID,0,
2013-08-24, 00:48:04,VALID,917.655,VALID,0,VALID,96.299,VALID,0,VALID,19.4508,VALID,139,VALID,0,
2013-08-24, 00:49:04,VALID,917.632,VALID,0,VALID,96.299,VALID,0,VALID,19.4313,VALID,138,VALID,0,
2013-08-24, 00:50:04,VALID,917.636,VALID,0,VALID,96.3142,VALID,0,VALID,19.4313,VALID,138,VALID,0,
2013-08-24, 00:51:04,VALID,917.61,VALID,0,VALID,96.3371,VALID,0,VALID,19.4523,VALID,137,VALID,0,
2013-08-24, 00:52:04,VALID,917.6,VALID,0,VALID,96.3371,VALID,0,VALID,19.4313,VALID,136,VALID,0,
2013-08-24, 00:53:04,VALID,917.556,VALID,0,VALID,96.3676,VALID,0,VALID,19.4313,VALID,146,VALID,0,
2013-08-24, 00:54:04,VALID,917.591,VALID,0,VALID,96.3829,VALID,0,VALID,19.4298,VALID,147,VALID,0,
2013-08-24, 00:55:04,VALID,917.553,VALID,0,VALID,96.3981,VALID,0,VALID,19.4298,VALID,147,VALID,0,
2013-08-24, 00:56:04,VALID,917.571,VALID,0,VALID,96.4057,VALID,0,VALID,19.4508,VALID,138,VALID,0,
2013-08-24, 00:57:04,VALID,917.565,VALID,0,VALID,96.4286,VALID,0,VALID,19.4298,VALID,138,VALID,0,
2013-08-24, 00:58:04,VALID,917.571,VALID,0,VALID,96.4057,VALID,0,VALID,19.4103,VALID,138,VALID,0,
2013-08-24, 00:59:04,VALID,917.551,VALID,0,VALID,96.4438,VALID,0,VALID,19.4298,VALID,140,VALID,0,
2013-08-24, 01:00:04,VALID,917.554,VALID,0,VALID,96.4438,VALID,0,VALID,19.4103,VALID,147,VALID,0,
2013-08-24, 01:01:04,VALID,917.548,VALID,0,VALID,96.4515,VALID,0,VALID,19.4103,VALID,147,VALID,0,
2013-08-24, 01:02:04,VALID,917.495,VALID,0,VALID,96.4667,VALID,0,VALID,19.4508,VALID,131,VALID,0,
2013-08-24, 01:03:04,VALID,917.48,VALID,0,VALID,96.4591,VALID,0,VALID,19.4103,VALID,139,VALID,0,
2013-08-24, 01:04:04,VALID,917.463,VALID,0,VALID,96.4591,VALID,0,VALID,19.3908,VALID,136,VALID,0,
2013-08-24, 01:05:04,VALID,917.457,VALID,0,VALID,96.4667,VALID,0.107441,VALID,19.4103,VALID,138,VALID,0,
2013-08-24, 01:06:04,VALID,917.445,VALID,0,VALID,96.4896,VALID,0,VALID,19.4118,VALID,138,VALID,0,
2013-08-24, 01:07:04,VALID,917.443,VALID,0,VALID,96.4515,VALID,0,VALID,19.3713,VALID,136,VALID,0,
2013-08-24, 01:08:04,VALID,917.454,VALID,0,VALID,96.4667,VALID,0,VALID,19.3728,VALID,136,VALID,0,
2013-08-24, 01:09:04,VALID,917.425,VALID,0,VALID,96.4667,VALID,0,VALID,19.3518,VALID,136,VALID,0,
2013-08-24, 01:10:04,VALID,917.412,VALID,0,VALID,96.4591,VALID,0,VALID,19.3518,VALID,134,VALID,0,
2013-08-24, 01:11:04,VALID,917.386,VALID,0,VALID,96.4743,VALID,0,VALID,19.3518,VALID,132,VALID,0,
2013-08-24, 01:12:04,VALID,917.383,VALID,0,VALID,96.4362,VALID,0,VALID,19.3143,VALID,132,VALID,0,
2013-08-24, 01:13:04,VALID,917.384,VALID,0,VALID,96.4515,VALID,0,VALID,19.2738,VALID,132,VALID,0,
2013-08-24, 01:14:04,VALID,917.356,VALID,0,VALID,96.4438,VALID,0,VALID,19.2753,VALID,132,VALID,0,
2013-08-24, 01:15:04,VALID,917.336,VALID,0,VALID,96.4591,VALID,0.107441,VALID,19.2543,VALID,132,VALID,0,
2013-08-24, 01:16:04,VALID,917.323,VALID,0,VALID,96.4438,VALID,0,VALID,19.2153,VALID,132,VALID,0,
2013-08-24, 01:17:04,VALID,917.3,VALID,0,VALID,96.4438,VALID,0,VALID,19.1763,VALID,132,VALID,0,
2013-08-24, 01:18:04,VALID,917.312,VALID,0,VALID,96.4667,VALID,0,VALID,19.1568,VALID,132,VALID,0,
2013-08-24, 01:19:04,VALID,917.284,VALID,0,VALID,96.4667,VALID,0,VALID,19.1778,VALID,132,VALID,0,
2013-08-24, 01:20:04,VALID,917.276,VALID,0,VALID,96.4667,VALID,0,VALID,19.1373,VALID,132,VALID,0,
2013-08-24, 01:21:04,VALID,917.29,VALID,0,VALID,96.4972,VALID,0,VALID,19.1373,VALID,132,VALID,0,
2013-08-24, 01:22:04,VALID,917.273,VALID,0,VALID,96.5124,VALID,0,VALID,19.1778,VALID,132,VALID,0,
2013-08-24, 01:23:04,VALID,917.236,VALID,0,VALID,96.5353,VALID,0,VALID,19.1763,VALID,132,VALID,0,
2013-08-24, 01:24:04,VALID,917.237,VALID,0,VALID,96.5506,VALID,0.107441,VALID,19.2153,VALID,132,VALID,0,
2013-08-24, 01:25:04,VALID,917.192,VALID,0,VALID,96.5734,VALID,0,VALID,19.2558,VALID,132,VALID,0,
2013-08-24, 01:26:04,VALID,917.172,VALID,0,VALID,96.5963,VALID,0,VALID,19.2753,VALID,132,VALID,0,
2013-08-24, 01:27:04,VALID,917.15,VALID,0,VALID,96.6039,VALID,0.107441,VALID,19.2543,VALID,132,VALID,0,
2013-08-24, 01:28:04,VALID,917.118,VALID,0,VALID,96.5811,VALID,0,VALID,19.2753,VALID,132,VALID,0,
2013-08-24, 01:29:04,VALID,917.12,VALID,0,VALID,96.6268,VALID,0,VALID,19.2948,VALID,132,VALID,0,
2013-08-24, 01:30:04,VALID,917.075,VALID,0,VALID,96.642,VALID,0,VALID,19.3323,VALID,133,VALID,0,
2013-08-24, 01:31:04,VALID,917.056,VALID,0,VALID,96.642,VALID,0,VALID,19.3518,VALID,133,VALID,0,
2013-08-24, 01:32:04,VALID,917.049,VALID,0,VALID,96.6802,VALID,0,VALID,19.3518,VALID,133,VALID,0,
2013-08-24, 01:33:04,VALID,917.039,VALID,0,VALID,96.6649,VALID,0,VALID,19.3728,VALID,133,VALID,0,
2013-08-24, 01:34:04,VALID,916.983,VALID,0,VALID,96.6649,VALID,0,VALID,19.3713,VALID,133,VALID,0,
2013-08-24, 01:35:04,VALID,917,VALID,0,VALID,96.6878,VALID,0,VALID,19.3728,VALID,133,VALID,0,
2013-08-24, 01:36:04,VALID,916.989,VALID,0,VALID,96.6802,VALID,0,VALID,19.3143,VALID,133,VALID,0,
2013-08-24, 01:37:04,VALID,916.96,VALID,0,VALID,96.6725,VALID,0,VALID,19.2933,VALID,133,VALID,0,
2013-08-24, 01:38:04,VALID,916.969,VALID,0,VALID,96.6649,VALID,0,VALID,19.2738,VALID,133,VALID,0,
2013-08-24, 01:39:04,VALID,916.943,VALID,0,VALID,96.6878,VALID,0,VALID,19.2933,VALID,133,VALID,0,
2013-08-24, 01:40:04,VALID,916.966,VALID,0,VALID,96.7107,VALID,0,VALID,19.3533,VALID,133,VALID,0,
2013-08-24, 01:41:04,VALID,916.954,VALID,0,VALID,96.7183,VALID,0,VALID,19.3728,VALID,133,VALID,0,
2013-08-24, 01:42:04,VALID,916.928,VALID,0,VALID,96.7183,VALID,0,VALID,19.4118,VALID,133,VALID,0,
2013-08-24, 01:43:04,VALID,916.939,VALID,0,VALID,96.7183,VALID,0,VALID,19.4103,VALID,133,VALID,0,
2013-08-24, 01:44:04,VALID,916.953,VALID,0,VALID,96.7335,VALID,0,VALID,19.4118,VALID,133,VALID,0,
2013-08-24, 01:45:04,VALID,916.929,VALID,0,VALID,96.7335,VALID,0,VALID,19.3713,VALID,133,VALID,0,
2013-08-24, 01:46:04,VALID,916.903,VALID,0,VALID,96.7335,VALID,0,VALID,19.3338,VALID,133,VALID,0,
2013-08-24, 01:47:04,VALID,916.897,VALID,0,VALID,96.7335,VALID,0,VALID,19.2543,VALID,133,VALID,0,
2013-08-24, 01:48:04,VALID,916.903,VALID,0,VALID,96.7107,VALID,0,VALID,19.2363,VALID,116,VALID,0,
2013-08-24, 01:49:04,VALID,916.888,VALID,0,VALID,96.7488,VALID,0,VALID,19.2153,VALID,116,VALID,0,
2013-08-24, 01:50:04,VALID,916.876,VALID,0,VALID,96.7335,VALID,0,VALID,19.1973,VALID,116,VALID,0,
2013-08-24, 01:51:04,VALID,916.883,VALID,0,VALID,96.7411,VALID,0,VALID,19.1763,VALID,116,VALID,0,
2013-08-24, 01:52:04,VALID,916.87,VALID,0,VALID,96.703,VALID,0,VALID,19.1388,VALID,116,VALID,0,
2013-08-24, 01:53:04,VALID,916.891,VALID,0,VALID,96.7183,VALID,0,VALID,19.1178,VALID,116,VALID,0,
2013-08-24, 01:54:04,VALID,916.894,VALID,0,VALID,96.7183,VALID,0,VALID,19.0983,VALID,116,VALID,0,
2013-08-24, 01:55:04,VALID,916.918,VALID,0,VALID,96.7335,VALID,0,VALID,19.0983,VALID,116,VALID,0,
2013-08-24, 01:56:04,VALID,916.903,VALID,0,VALID,96.7107,VALID,0,VALID,19.0398,VALID,116,VALID,0,
2013-08-24, 01:57:04,VALID,916.889,VALID,0,VALID,96.7183,VALID,0,VALID,19.0803,VALID,116,VALID,0,
2013-08-24, 01:58:04,VALID,916.906,VALID,0,VALID,96.7335,VALID,0,VALID,19.0413,VALID,116,VALID,0,
2013-08-24, 01:59:04,VALID,916.884,VALID,0,VALID,96.7335,VALID,0,VALID,19.0218,VALID,116,VALID,0,
2013-08-24, 02:00:04,VALID,916.869,VALID,0,VALID,96.7107,VALID,0,VALID,18.9438,VALID,116,VALID,0,
2013-08-24, 02:01:04,VALID,916.884,VALID,0,VALID,96.7107,VALID,0,VALID,18.8853,VALID,116,VALID,0,
2013-08-24, 02:02:04,VALID,916.858,VALID,0,VALID,96.7107,VALID,0,VALID,18.8463,VALID,118,VALID,0,
2013-08-24, 02:03:04,VALID,916.86,VALID,0,VALID,96.6954,VALID,0,VALID,18.7878,VALID,127,VALID,0,
2013-08-24, 02:04:04,VALID,916.845,VALID,0,VALID,96.7107,VALID,0,VALID,18.7488,VALID,128,VALID,0,
2013-08-24, 02:05:04,VALID,916.837,VALID,0,VALID,96.6954,VALID,0,VALID,18.7293,VALID,124,VALID,0,
2013-08-24, 02:06:04,VALID,916.812,VALID,0,VALID,96.7488,VALID,0,VALID,18.7488,VALID,134,VALID,0,
2013-08-24, 02:07:04,VALID,916.81,VALID,0,VALID,96.7564,VALID,0,VALID,18.7488,VALID,131,VALID,0,
2013-08-24, 02:08:04,VALID,916.825,VALID,0,VALID,96.7793,VALID,0,VALID,18.8059,VALID,160,VALID,0,
2013-08-24, 02:09:04,VALID,916.821,VALID,0,VALID,96.8021,VALID,0,VALID,18.9034,VALID,166,VALID,0,
2013-08-24, 02:10:04,VALID,916.812,VALID,0,VALID,96.8479,VALID,0,VALID,18.9828,VALID,146,VALID,0,
2013-08-24, 02:11:04,VALID,916.824,VALID,0,VALID,96.8326,VALID,0,VALID,19.0218,VALID,137,VALID,0,
2013-08-24, 02:12:04,VALID,916.823,VALID,0,VALID,96.8707,VALID,0,VALID,19.0803,VALID,182,VALID,0,
2013-08-24, 02:13:04,VALID,916.801,VALID,0,VALID,96.8707,VALID,0,VALID,19.1193,VALID,141,VALID,0,
2013-08-24, 02:14:04,VALID,916.836,VALID,0,VALID,96.886,VALID,0.107441,VALID,19.1178,VALID,137,VALID,0,
2013-08-24, 02:15:04,VALID,916.85,VALID,0,VALID,96.886,VALID,0.107441,VALID,19.1373,VALID,119,VALID,0,
2013-08-24, 02:16:04,VALID,916.852,VALID,0,VALID,96.9089,VALID,0,VALID,19.0983,VALID,123,VALID,0,
2013-08-24, 02:17:04,VALID,916.812,VALID,0,VALID,96.8936,VALID,0,VALID,19.1178,VALID,127,VALID,0,
2013-08-24, 02:18:04,VALID,916.815,VALID,0,VALID,96.8784,VALID,0.107441,VALID,19.1193,VALID,112,VALID,0,
2013-08-24, 02:19:04,VALID,916.812,VALID,0,VALID,96.9089,VALID,0,VALID,19.1388,VALID,118,VALID,0,
2013-08-24, 02:20:04,VALID,916.81,VALID,0,VALID,96.9089,VALID,0,VALID,19.1388,VALID,117,VALID,0,
2013-08-24, 02:21:04,VALID,916.806,VALID,0,VALID,96.9241,VALID,0,VALID,19.1388,VALID,122,VALID,0,
2013-08-24, 02:22:04,VALID,916.811,VALID,0,VALID,96.9165,VALID,0,VALID,19.0983,VALID,117,VALID,0,
2013-08-24, 02:23:04,VALID,916.761,VALID,0,VALID,96.9317,VALID,0,VALID,19.0998,VALID,106,VALID,0,
2013-08-24, 02:24:04,VALID,916.77,VALID,0,VALID,96.9165,VALID,0,VALID,19.0398,VALID,107,VALID,0,
2013-08-24, 02:25:04,VALID,916.737,VALID,0,VALID,96.9317,VALID,0,VALID,19.0008,VALID,107,VALID,0,
2013-08-24, 02:26:04,VALID,916.735,VALID,0,VALID,96.9317,VALID,0,VALID,19.0008,VALID,124,VALID,0,
2013-08-24, 02:27:04,VALID,916.74,VALID,0,VALID,96.9317,VALID,0,VALID,19.0398,VALID,128,VALID,0,
2013-08-24, 02:28:04,VALID,916.712,VALID,0,VALID,96.9546,VALID,0,VALID,19.0998,VALID,130,VALID,0,
2013-08-24, 02:29:04,VALID,916.671,VALID,0,VALID,96.9698,VALID,0.107441,VALID,19.0983,VALID,132,VALID,0,
2013-08-24, 02:30:04,VALID,916.689,VALID,0,VALID,96.9775,VALID,0,VALID,19.1388,VALID,147,VALID,0,
2013-08-24, 02:31:04,VALID,916.685,VALID,0,VALID,96.9698,VALID,0.107441,VALID,19.1568,VALID,150,VALID,0,
2013-08-24, 02:32:04,VALID,916.679,VALID,0,VALID,96.9775,VALID,0,VALID,19.1958,VALID,147,VALID,0,
2013-08-24, 02:33:04,VALID,916.686,VALID,0,VALID,96.9851,VALID,0,VALID,19.2363,VALID,160,VALID,0,
2013-08-24, 02:34:04,VALID,916.68,VALID,0,VALID,97.0003,VALID,0,VALID,19.2348,VALID,159,VALID,0,
2013-08-24, 02:35:04,VALID,916.664,VALID,0,VALID,97.0003,VALID,0,VALID,19.2558,VALID,179,VALID,0,
2013-08-24, 02:36:04,VALID,916.681,VALID,0,VALID,96.9927,VALID,0.107441,VALID,19.2753,VALID,169,VALID,0,
2013-08-24, 02:37:04,VALID,916.67,VALID,0,VALID,97.0156,VALID,0,VALID,19.2348,VALID,158,VALID,0,
2013-08-24, 02:38:04,VALID,916.654,VALID,0,VALID,97.008,VALID,0.107441,VALID,19.2753,VALID,150,VALID,0,
2013-08-24, 02:39:04,VALID,916.649,VALID,0,VALID,96.9851,VALID,0.107441,VALID,19.2543,VALID,137,VALID,0,
2013-08-24, 02:40:04,VALID,916.63,VALID,0,VALID,97.0156,VALID,0,VALID,19.2543,VALID,136,VALID,0,
2013-08-24, 02:41:04,VALID,916.621,VALID,0,VALID,97.0003,VALID,0.107441,VALID,19.2543,VALID,140,VALID,0,
2013-08-24, 02:42:04,VALID,916.631,VALID,0,VALID,97.0156,VALID,0.107441,VALID,19.2543,VALID,161,VALID,0,
2013-08-24, 02:43:04,VALID,916.61,VALID,0,VALID,97.0308,VALID,0.107441,VALID,19.2738,VALID,149,VALID,0,
2013-08-24, 02:44:04,VALID,916.584,VALID,0,VALID,97.0156,VALID,0,VALID,19.2738,VALID,157,VALID,0,
2013-08-24, 02:45:04,VALID,916.575,VALID,0,VALID,97.0385,VALID,0,VALID,19.2738,VALID,145,VALID,0,
2013-08-24, 02:46:04,VALID,916.545,VALID,0,VALID,97.0385,VALID,0,VALID,19.2543,VALID,127,VALID,0,
2013-08-24, 02:47:04,VALID,916.534,VALID,0,VALID,97.0385,VALID,0.107441,VALID,19.2738,VALID,136,VALID,0,
2013-08-24, 02:48:04,VALID,916.554,VALID,0,VALID,97.0232,VALID,0.107441,VALID,19.2723,VALID,136,VALID,0,
2013-08-24, 02:49:04,VALID,916.559,VALID,0,VALID,97.0537,VALID,0.107441,VALID,19.2738,VALID,127,VALID,0,
2013-08-24, 02:50:04,VALID,916.548,VALID,0,VALID,97.0308,VALID,0,VALID,19.2738,VALID,127,VALID,0,
2013-08-24, 02:51:04,VALID,916.56,VALID,0,VALID,97.0461,VALID,0.107441,VALID,19.2738,VALID,135,VALID,0,
2013-08-24, 02:52:04,VALID,916.574,VALID,0,VALID,97.0537,VALID,0.107441,VALID,19.2738,VALID,180,VALID,0,
2013-08-24, 02:53:04,VALID,916.551,VALID,0,VALID,97.0613,VALID,0.107441,VALID,19.2543,VALID,129,VALID,0,
2013-08-24, 02:54:04,VALID,916.567,VALID,0,VALID,97.0537,VALID,0,VALID,19.2753,VALID,148,VALID,0,
2013-08-24, 02:55:04,VALID,916.553,VALID,0,VALID,97.0766,VALID,0,VALID,19.2558,VALID,138,VALID,0,
2013-08-24, 02:56:04,VALID,916.555,VALID,0,VALID,97.0537,VALID,0,VALID,19.2363,VALID,155,VALID,0,
2013-08-24, 02:57:04,VALID,916.544,VALID,0,VALID,97.0613,VALID,0,VALID,19.2168,VALID,134,VALID,0,
2013-08-24, 02:58:04,VALID,916.552,VALID,0,VALID,97.0613,VALID,0,VALID,19.2168,VALID,152,VALID,0,
2013-08-24, 02:59:04,VALID,916.552,VALID,0,VALID,97.0842,VALID,0,VALID,19.2168,VALID,144,VALID,0,
2013-08-24, 03:00:04,VALID,916.573,VALID,0,VALID,97.0766,VALID,0,VALID,19.1973,VALID,137,VALID,0,
2013-08-24, 03:01:04,VALID,916.587,VALID,0,VALID,97.0842,VALID,0,VALID,19.1973,VALID,126,VALID,0,
2013-08-24, 03:02:04,VALID,916.581,VALID,0,VALID,97.0918,VALID,0,VALID,19.1778,VALID,141,VALID,0,
2013-08-24, 03:03:04,VALID,916.585,VALID,0,VALID,97.1071,VALID,0,VALID,19.1583,VALID,135,VALID,0,
2013-08-24, 03:04:04,VALID,916.588,VALID,0,VALID,97.1071,VALID,0,VALID,19.1388,VALID,129,VALID,0,
2013-08-24, 03:05:04,VALID,916.601,VALID,0,VALID,97.0918,VALID,0,VALID,19.1388,VALID,133,VALID,0,
2013-08-24, 03:06:04,VALID,916.6,VALID,0,VALID,97.0918,VALID,0,VALID,19.1193,VALID,114,VALID,0,
2013-08-24, 03:07:04,VALID,916.575,VALID,0,VALID,97.1223,VALID,0,VALID,19.0998,VALID,118,VALID,0,
2013-08-24, 03:08:04,VALID,916.572,VALID,0,VALID,97.1147,VALID,0,VALID,19.0998,VALID,107,VALID,0,
2013-08-24, 03:09:04,VALID,916.563,VALID,0,VALID,97.1147,VALID,0,VALID,19.0788,VALID,112,VALID,0,
2013-08-24, 03:10:04,VALID,916.602,VALID,0,VALID,97.1299,VALID,0.107441,VALID,19.0593,VALID,108,VALID,0,
2013-08-24, 03:11:04,VALID,916.607,VALID,0,VALID,97.1299,VALID,0,VALID,19.0398,VALID,119,VALID,0,
2013-08-24, 03:12:04,VALID,916.6,VALID,0,VALID,97.1299,VALID,0.107441,VALID,19.0203,VALID,121,VALID,0,
2013-08-24, 03:13:04,VALID,916.648,VALID,0,VALID,97.1376,VALID,0,VALID,19.0008,VALID,121,VALID,0,
2013-08-24, 03:14:04,VALID,916.67,VALID,0,VALID,97.1299,VALID,0.107441,VALID,19.0218,VALID,132,VALID,0,
2013-08-24, 03:15:04,VALID,916.672,VALID,0,VALID,97.1376,VALID,0,VALID,18.9814,VALID,133,VALID,0,
2013-08-24, 03:16:04,VALID,916.638,VALID,0,VALID,97.1528,VALID,0.107441,VALID,18.9619,VALID,131,VALID,0,
2013-08-24, 03:17:04,VALID,916.659,VALID,0,VALID,97.1452,VALID,0,VALID,18.9424,VALID,120,VALID,0,
2013-08-24, 03:18:04,VALID,916.677,VALID,0,VALID,97.1528,VALID,0,VALID,18.9229,VALID,117,VALID,0,
2013-08-24, 03:19:04,VALID,916.63,VALID,0,VALID,97.1604,VALID,0.107441,VALID,18.9229,VALID,121,VALID,0,
2013-08-24, 03:20:04,VALID,916.652,VALID,0,VALID,97.1681,VALID,0,VALID,18.9438,VALID,115,VALID,0,
2013-08-24, 03:21:04,VALID,916.64,VALID,0,VALID,97.1757,VALID,0.107441,VALID,18.9243,VALID,118,VALID,0,
2013-08-24, 03:22:04,VALID,916.644,VALID,0,VALID,97.1757,VALID,0.107441,VALID,18.8839,VALID,117,VALID,0,
2013-08-24, 03:23:04,VALID,916.629,VALID,0,VALID,97.1604,VALID,0,VALID,18.8644,VALID,114,VALID,0,
2013-08-24, 03:24:04,VALID,916.603,VALID,0,VALID,97.1757,VALID,0.107441,VALID,18.8644,VALID,114,VALID,0,
2013-08-24, 03:25:04,VALID,916.632,VALID,0,VALID,97.1757,VALID,0.107441,VALID,18.8449,VALID,114,VALID,0,
2013-08-24, 03:26:04,VALID,916.63,VALID,0,VALID,97.1986,VALID,0.107441,VALID,18.8059,VALID,114,VALID,0,
2013-08-24, 03:27:04,VALID,916.587,VALID,0,VALID,97.2062,VALID,0,VALID,18.8073,VALID,96,VALID,0,
2013-08-24, 03:28:04,VALID,916.588,VALID,0,VALID,97.1757,VALID,0,VALID,18.7669,VALID,93,VALID,0,
2013-08-24, 03:29:04,VALID,916.601,VALID,0,VALID,97.1909,VALID,0,VALID,18.7279,VALID,94,VALID,0,
2013-08-24, 03:30:04,VALID,916.602,VALID,0,VALID,97.1833,VALID,0,VALID,18.7279,VALID,93,VALID,0,
2013-08-24, 03:31:04,VALID,916.603,VALID,0,VALID,97.1986,VALID,0.107441,VALID,18.6889,VALID,94,VALID,0,
2013-08-24, 03:32:04,VALID,916.589,VALID,0,VALID,97.1986,VALID,0,VALID,18.7279,VALID,94,VALID,0,
2013-08-24, 03:33:04,VALID,916.6,VALID,0,VALID,97.2138,VALID,0,VALID,18.7293,VALID,94,VALID,0,
2013-08-24, 03:34:04,VALID,916.584,VALID,0,VALID,97.2214,VALID,0,VALID,18.7488,VALID,88,VALID,0,
2013-08-24, 03:35:04,VALID,916.578,VALID,0,VALID,97.2214,VALID,0,VALID,18.7084,VALID,87,VALID,0,
2013-08-24, 03:36:04,VALID,916.56,VALID,0,VALID,97.229,VALID,0,VALID,18.7279,VALID,86,VALID,0,
2013-08-24, 03:37:04,VALID,916.573,VALID,0,VALID,97.2138,VALID,0,VALID,18.7279,VALID,101,VALID,0,
2013-08-24, 03:38:04,VALID,916.589,VALID,0,VALID,97.2214,VALID,0,VALID,18.7474,VALID,115,VALID,0,
2013-08-24, 03:39:04,VALID,916.579,VALID,0,VALID,97.2443,VALID,0.107441,VALID,18.7669,VALID,129,VALID,0,
2013-08-24, 03:40:04,VALID,916.614,VALID,0,VALID,97.2062,VALID,0.107441,VALID,18.7669,VALID,129,VALID,0,
2013-08-24, 03:41:04,VALID,916.607,VALID,0,VALID,97.2367,VALID,0.107441,VALID,18.7474,VALID,129,VALID,0,
2013-08-24, 03:42:04,VALID,916.63,VALID,0,VALID,97.2367,VALID,0,VALID,18.7488,VALID,129,VALID,0,
2013-08-24, 03:43:04,VALID,916.655,VALID,0,VALID,97.2367,VALID,0,VALID,18.7488,VALID,133,VALID,0,
2013-08-24, 03:44:04,VALID,916.691,VALID,0,VALID,97.2443,VALID,0.107441,VALID,18.7474,VALID,133,VALID,0,
2013-08-24, 03:45:04,VALID,916.65,VALID,0,VALID,97.2443,VALID,0,VALID,18.7279,VALID,135,VALID,0,
2013-08-24, 03:46:04,VALID,916.661,VALID,0,VALID,97.2443,VALID,0,VALID,18.7474,VALID,110,VALID,0,
2013-08-24, 03:47:04,VALID,916.635,VALID,0,VALID,97.2367,VALID,0,VALID,18.7279,VALID,111,VALID,0,
2013-08-24, 03:48:04,VALID,916.614,VALID,0,VALID,97.2519,VALID,0.107441,VALID,18.7084,VALID,115,VALID,0,
2013-08-24, 03:49:04,VALID,916.62,VALID,0,VALID,97.2672,VALID,0,VALID,18.6889,VALID,114,VALID,0,
2013-08-24, 03:50:04,VALID,916.614,VALID,0,VALID,97.2595,VALID,0,VALID,18.6694,VALID,111,VALID,0,
2013-08-24, 03:51:04,VALID,916.606,VALID,0,VALID,97.2672,VALID,0.107441,VALID,18.6304,VALID,111,VALID,0,
2013-08-24, 03:52:04,VALID,916.612,VALID,0,VALID,97.2748,VALID,0,VALID,18.6319,VALID,111,VALID,0,
2013-08-24, 03:53:04,VALID,916.618,VALID,0,VALID,97.29,VALID,0.107441,VALID,18.6304,VALID,111,VALID,0,
2013-08-24, 03:54:04,VALID,916.607,VALID,0,VALID,97.2824,VALID,0,VALID,18.6109,VALID,111,VALID,0,
2013-08-24, 03:55:04,VALID,916.589,VALID,0,VALID,97.2977,VALID,0,VALID,18.6109,VALID,115,VALID,0,
2013-08-24, 03:56:04,VALID,916.586,VALID,0,VALID,97.2672,VALID,0,VALID,18.5914,VALID,117,VALID,0,
2013-08-24, 03:57:04,VALID,916.585,VALID,0,VALID,97.2824,VALID,0.107441,VALID,18.6109,VALID,131,VALID,0,